User: anonymous   Login
Location: Unspecified
(0.0000°N, 0.0000°E)
Time: 00:04:02
(UTC+00:00)
Language:

SO-50 - Orbit

View from above orbital plane
View from above orbital plane
View from above satellite
View from above satellite

Ground track
Ground track

The orbit data is extracted from the following two-line orbital elements,

1 27607U 02058C   17172.81585821 -.00000010 +00000-0 +18906-4 0  9993
2 27607 064.5556 111.4174 0029626 094.2012 266.2477 14.75332839779661
Epoch (UTC): 21 June 2017 19:34:50
Eccentricity: 0.0029626
inclination: 64.5556°
perigee height: 623 km
apogee height: 665 km
right ascension of ascending node: 111.4174°
argument of perigee: 94.2012°
revolutions per day: 14.75332839
mean anomaly at epoch: 266.2477°
orbit number at epoch: 77966

The dashed part of the orbit path shows where the satellite is in the earth's shadow,  

DLR